sat.trackr.live / text

‹ back to catalog

STARLINK-34069

NORAD 64920 · 2025-157S

PAYLOAD ACTIVE UNKNOWN

§ Identity

Operator
Country
US
Launch date
2025-07-26
Launch site
AFETR
Launch vehicle
Mass (kg)
RCS (m²)

Purposes: comms

External: N2YO · Heavens-Above · Gunter

§ Orbital elements

Epoch: 2026-05-24T23:56:35.575008Z

Period
94.11 min
Inclination
53.1589°
Eccentricity
0.0001053
Mean motion
15.30189634 rev/d
Perigee alt
474.5 km
Apogee alt
476.0 km
Semi-major
6,853.4 km
B*
1.0225e-3
RAAN
351.4550°
Arg perigee
77.6384°
Mean anomaly
282.4734°
Rev number
4,780

§ Raw data

STARLINK-340691 64920U 25157S   26144.99763397  .00030038  00000+0  10225-2 0  99962 64920  53.1589 351.4550 0001053  77.6384 282.4734 15.30189634 47800

JSON: /api/v1/satellites/64920 · /tle

For live sub-satellite position, see the globe view (requires WebGL).

§ Visibility from observer

Set your observer location to see the next 7 days of passes ≥ 10°. The values pass through the URL so the page stays shareable.

No JS? Fill the form by hand. The geolocation button needs JavaScript.